Theta_e
307 307 307 307 308 307 307 308 308 309 309 308 308 304 305 305 307 308 309 304 308 305 310 311 309 310 311 312 318 318 325 329 328 327 325 324 325 323 325 325 325 320 324 324 337
310 309 308 308 308 308 307 308 308 309 309 307 304 304 304 307 310 311 312 305 310 311 308 308 309 311 310 312 316 318 319 326 326 325 326 325 325 326 327 326 325 325 323 324 331
310 310 310 310 310 307 307 307 308 308 308 307 304 304 304 310 313 316 311 310 311 308 306 308 310 310 310 311 315 318 319 322 324 323 324 324 324 324 325 325 326 325 323 322 323
309 309 310 310 308 307 306 307 307 307 305 304 305 304 305 313 318 315 310 310 308 306 309 312 310 309 309 311 312 314 316 319 321 321 322 322 323 325 324 324 325 325 324 323 323
306 308 309 307 308 308 308 308 307 304 301 305 305 307 309 316 317 313 310 309 309 311 313 313 311 308 309 309 309 311 312 312 312 312 316 319 320 322 321 320 323 324 325 324 323
306 305 306 307 309 308 309 307 306 303 301 307 307 309 314 318 312 311 311 310 311 312 312 311 309 308 308 309 309 308 309 310 310 311 311 313 314 315 317 317 318 321 323 323 323
307 305 306 308 309 309 309 307 304 302 302 307 308 313 313 311 313 311 311 311 312 312 311 311 310 310 308 309 308 309 308 308 310 311 312 313 313 314 315 316 316 317 317 319 322
307 302 303 306 308 307 306 303 302 300 303 308 310 315 310 315 316 311 311 311 309 309 312 311 311 309 309 308 306 308 305 306 308 309 310 312 314 314 312 313 314 315 315 315 317
307 303 303 305 306 303 302 304 305 302 306 309 312 312 316 314 311 309 308 308 310 310 310 310 309 308 308 306 306 305 306 308 308 308 308 310 309 309 310 311 311 311 311 312 312
304 301 303 304 304 305 308 312 314 313 313 314 313 314 314 313 310 309 309 309 309 309 310 309 304 307 304 306 308 309 308 308 309 310 309 309 310 310 310 310 311 310 310 310 311
301 301 303 305 305 307 311 311 306 308 314 312 316 316 317 314 310 309 310 309 309 307 308 307 307 307 307 306 308 309 310 309 309 309 309 308 309 309 309 309 309 309 309 309 310
299 302 304 304 306 310 311 310 311 310 310 309 311 314 315 314 310 309 310 309 308 308 307 305 307 308 308 308 308 309 310 310 310 312 312 310 311 309 309 309 309 309 309 308 308
300 303 305 304 308 311 311 311 311 310 308 310 311 311 310 310 309 309 309 308 309 308 307 306 307 308 310 310 310 310 313 314 313 313 311 310 312 311 309 309 309 308 308 307 307
301 305 305 308 310 310 311 311 310 310 313 315 310 309 308 308 308 309 309 309 308 308 307 307 307 308 307 309 312 312 313 312 312 312 311 311 311 310 309 308 308 307 306 304 305
303 306 305 311 310 310 312 311 311 311 312 314 309 309 307 307 309 311 309 308 307 307 307 307 307 307 307 310 313 310 312 311 312 312 311 310 308 309 309 310 308 306 312 312 313
305 307 305 308 309 312 311 309 312 313 313 312 310 309 309 309 308 309 309 308 308 307 306 306 306 308 310 312 311 311 311 308 309 307 310 309 309 308 307 308 308 314 315 314 313
307 309 306 306 309 311 311 309 314 314 312 312 311 310 310 309 310 309 309 307 306 308 307 307 307 312 311 311 308 307 306 308 309 311 312 309 311 309 308 312 314 316 314 313 312
309 311 314 313 313 313 310 309 314 312 312 311 311 310 311 310 310 309 309 308 309 306 306 307 307 309 310 310 308 308 307 308 312 313 309 309 312 309 309 314 314 315 313 313 311
312 313 315 314 311 310 307 310 308 310 310 311 311 311 311 311 310 309 309 310 309 308 309 309 310 309 308 308 307 308 308 306 310 309 310 309 309 308 309 314 314 313 312 312 312
312 313 314 312 309 310 308 314 309 308 309 311 312 312 311 310 310 309 309 312 311 310 306 308 311 309 309 308 308 310 309 310 306 313 314 311 310 311 310 311 314 312 312 313 313
312 310 313 311 310 308 309 311 311 312 311 311 311 311 310 310 310 310 310 310 312 311 309 309 308 310 309 308 308 308 310 311 307 308 308 313 311 309 312 312 313 312 313 312 311
306 310 312 311 307 304 309 311 311 312 310 311 310 310 310 310 309 310 310 312 311 311 312 311 309 311 311 308 309 308 310 310 308 310 312 312 313 309 312 312 312 312 313 312 312
305 307 311 310 306 306 306 310 310 312 311 310 310 310 310 310 311 310 311 311 311 311 311 310 309 312 309 307 307 311 312 311 309 309 315 315 312 312 312 313 313 313 313 314 314
303 306 303 302 302 307 308 310 311 312 311 309 310 309 309 309 308 309 311 311 310 310 312 312 308 312 311 309 307 311 312 311 313 316 313 313 312 311 311 312 313 314 313 314 315
299 304 303 304 302 305 307 310 311 310 307 306 308 309 309 309 309 309 309 309 310 310 310 309 311 310 311 312 312 313 314 314 314 313 315 313 312 311 311 312 313 312 314 316 319
301 302 300 302 303 306 306 307 308 309 307 307 307 307 307 307 307 307 307 307 309 309 310 307 310 311 314 314 314 314 313 313 312 312 313 313 313 310 310 310 311 312 313 314 315
302 301 300 302 304 303 303 305 307 307 307 307 306 305 306 306 307 306 305 306 308 308 308 309 310 311 313 311 313 315 314 313 315 313 313 314 313 311 311 311 311 312 312 313 314
Wind_Speed
19 19 19 19 19 19 19 18 17 16 16 16 16 17 18 21 23 18 7 9 3 11 7 8 6 5 2 2 4 4 2 4 4 3 3 5 3 3 5 4 7 6 5 7 12
18 19 19 20 20 20 20 19 18 16 16 16 16 16 17 19 18 11 6 9 8 5 4 4 2 3 1 3 2 4 4 7 3 2 4 8 5 10 9 17 10 13 9 15 14
20 20 20 20 20 20 20 19 17 16 15 15 15 15 16 15 4 5 1 8 8 7 4 3 2 1 2 2 4 5 6 4 3 3 4 10 15 7 11 17 3 10 10 10 4
22 22 21 22 22 22 21 19 18 16 14 14 15 12 11 2 1 3 2 5 7 6 3 2 2 3 4 5 4 4 4 3 1 5 5 8 11 16 16 20 9 8 8 7 8
23 23 23 23 24 23 22 20 18 15 11 12 11 9 3 2 7 2 4 6 6 5 4 2 2 1 3 2 3 4 4 4 6 7 7 11 15 13 28 17 9 12 10 8 9
25 24 24 25 25 24 23 21 17 13 8 9 7 5 1 2 4 4 7 7 6 7 2 5 3 4 1 1 1 2 3 6 3 5 5 7 11 6 22 8 11 6 9 8 9
28 26 25 26 26 25 23 20 13 8 5 6 3 0 1 9 1 5 8 7 8 12 3 4 3 3 3 5 1 3 6 5 4 4 7 7 11 17 16 7 11 10 12 11 9
29 28 28 27 26 24 20 14 8 5 4 2 1 2 6 2 7 8 11 13 5 12 13 5 2 3 2 1 7 4 4 3 4 4 6 7 19 8 8 9 10 9 11 12 10
30 29 29 27 25 20 19 15 7 2 2 2 2 3 7 7 3 6 7 4 5 3 7 7 3 2 5 3 5 6 1 2 7 5 4 4 6 7 9 6 8 7 8 11 15
31 31 29 25 21 20 20 8 8 8 7 3 2 2 4 3 5 3 5 5 3 2 5 4 4 3 3 4 2 3 1 3 4 6 5 10 11 6 6 5 7 8 8 9 11
32 32 27 21 16 17 16 2 5 3 3 5 3 4 4 12 6 2 2 2 3 6 2 2 4 4 9 9 6 2 3 6 5 6 5 9 18 10 6 4 6 7 8 9 9
33 29 23 17 13 9 8 4 2 6 5 6 8 6 17 9 5 4 6 2 3 2 2 5 2 5 5 4 5 4 3 2 3 4 7 8 22 13 5 6 5 6 7 8 9
34 24 21 12 6 6 5 9 9 5 2 6 4 4 5 9 4 5 5 2 2 1 2 3 6 4 3 4 3 2 2 3 4 5 5 7 19 6 3 4 5 3 6 8 8
31 21 16 10 2 7 3 17 10 2 3 3 2 4 3 1 3 6 6 4 1 2 3 4 3 2 4 1 2 3 1 2 5 7 3 4 11 17 5 6 3 9 8 8 8
25 17 9 6 2 0 9 19 9 2 4 2 1 1 2 4 3 3 6 3 5 5 4 6 4 5 3 2 1 5 2 3 3 5 3 4 4 3 12 13 8 7 5 7 8
16 13 7 4 6 7 16 16 2 4 3 3 3 4 5 3 4 0 3 2 1 3 2 8 2 3 2 1 0 2 2 4 3 1 2 9 7 6 2 1 3 4 7 9 8
12 7 5 5 4 13 19 3 4 5 4 5 3 5 2 4 4 5 5 3 1 1 3 3 2 2 3 2 5 6 6 4 4 3 4 3 4 9 12 6 6 6 8 10 12
10 5 5 7 11 14 7 5 7 3 3 2 4 6 4 7 5 6 2 1 6 4 2 2 5 4 2 3 4 4 7 4 5 3 9 6 6 6 5 5 4 4 8 10 12
8 6 4 5 8 6 4 5 3 2 2 4 5 4 5 5 3 6 5 2 2 4 3 1 4 3 2 2 4 3 3 5 3 2 2 5 10 8 9 5 4 8 9 10 12
6 8 5 6 8 4 5 1 3 2 2 2 1 1 2 4 4 6 1 1 4 1 2 3 5 4 1 2 4 2 2 1 2 3 5 5 6 9 12 9 6 8 10 13 13
5 3 7 7 6 5 3 3 3 5 4 3 3 4 4 2 2 2 4 2 3 2 3 2 4 4 2 4 5 2 1 3 2 3 4 4 7 6 6 8 7 10 10 10 13
3 2 10 8 4 1 0 2 5 3 2 4 3 4 4 3 3 3 6 5 5 4 4 4 3 3 8 7 6 6 6 5 4 5 4 3 15 7 5 8 6 10 11 9 12
2 2 5 2 2 3 6 5 3 2 4 2 3 4 2 3 3 5 4 2 5 6 6 5 1 4 7 3 5 1 4 4 2 1 12 6 10 4 5 8 10 11 10 9 11
2 3 4 4 1 3 4 5 5 5 2 3 3 2 4 2 4 5 3 3 2 3 6 7 4 7 6 7 2 9 11 11 11 5 8 16 27 20 17 16 13 7 9 9 8
4 1 2 4 2 2 3 3 3 5 5 5 2 5 1 4 3 6 3 4 4 7 3 7 7 6 10 14 12 16 21 20 16 18 12 20 20 23 15 10 7 8 10 11 11
2 3 4 3 3 4 2 2 2 3 4 3 1 6 4 6 6 7 6 4 7 5 4 2 4 5 7 10 14 19 19 19 20 19 18 21 24 10 5 6 6 10 12 13 14
6 3 2 3 3 1 2 2 4 7 5 3 3 3 4 7 4 10 11 10 11 7 6 6 5 2 15 10 10 12 18 9 4 6 5 8 18 4 12 10 7 9 13 16 11
Wind_Direction
345 341 339 335 333 331 330 328 326 325 323 321 321 327 330 324 319 315 229 229 225 225 272 295 293 266 238 238 204 110 168 228 230 140 231 319 357 182 317 319 324 342 5 314 80
344 340 337 334 330 328 327 326 325 324 323 322 323 326 327 327 321 272 279 196 213 202 257 269 307 27 189 219 220 157 179 220 225 101 322 293 308 325 338 317 317 320 328 8 77
340 337 335 333 330 326 324 322 322 322 321 321 324 323 324 330 317 261 295 180 188 221 245 277 291 251 191 218 210 195 203 208 288 347 316 302 301 310 295 284 290 290 312 330 16
338 335 333 331 331 325 322 319 319 318 320 326 329 325 331 0 158 296 108 170 191 223 235 206 161 149 181 212 240 251 246 228 255 285 291 273 303 299 275 267 280 279 289 290 314
337 333 331 329 326 324 320 317 315 313 322 332 336 339 5 326 254 222 176 168 191 192 235 162 123 145 199 228 310 201 274 306 338 311 283 284 278 265 279 286 279 279 275 254 278
339 336 333 328 324 322 318 314 312 309 324 335 345 345 17 315 253 208 191 203 220 217 204 159 185 210 96 307 164 327 287 290 272 246 232 246 269 260 267 327 301 293 282 261 236
341 339 334 329 325 323 318 314 318 309 313 335 356 91 295 236 259 246 231 244 261 234 249 200 181 94 135 323 307 319 337 341 215 233 233 212 259 247 277 299 288 301 287 292 249
341 342 338 332 328 326 327 333 326 299 294 310 88 200 248 302 291 264 240 267 278 250 230 268 170 115 134 301 9 14 43 16 278 262 255 174 253 284 2 347 329 338 334 346 340
338 343 342 334 332 339 345 330 304 282 268 206 160 176 273 320 255 206 205 218 304 185 238 265 114 116 26 66 9 14 193 259 309 321 281 194 311 328 328 350 319 332 327 328 327
342 343 341 338 344 348 353 35 60 108 115 100 262 329 283 317 229 255 199 235 245 19 356 69 52 101 45 76 237 248 250 249 261 299 317 296 274 269 288 298 301 313 317 319 319
345 343 340 341 346 347 3 30 20 10 176 215 210 270 281 326 274 234 251 142 67 58 61 10 92 207 239 207 224 237 239 247 269 285 312 289 294 300 276 248 280 299 310 313 310
347 343 340 340 342 15 24 47 296 271 315 249 245 244 264 267 303 281 211 150 71 306 10 25 208 212 255 208 195 185 208 251 272 320 327 305 292 293 270 254 231 280 300 298 304
348 345 340 346 347 19 47 20 355 302 61 300 201 202 228 150 234 262 147 172 135 285 112 157 246 303 11 339 29 341 112 333 271 302 266 307 290 258 264 276 288 270 264 283 277
350 346 343 1 83 345 333 350 348 311 68 295 237 268 139 141 282 226 183 143 59 226 289 256 265 69 356 303 94 339 76 324 330 350 306 53 290 290 267 272 297 289 308 323 335
350 348 348 25 344 33 324 337 331 108 66 176 285 234 94 180 285 252 159 84 195 199 103 257 291 328 328 256 93 241 312 289 276 263 278 206 257 283 332 304 284 335 338 327 313
352 348 338 335 307 343 335 332 103 46 63 6 42 0 351 266 249 243 186 96 149 155 221 245 218 189 200 280 264 347 337 352 358 44 281 211 200 314 208 305 269 282 305 294 279
350 347 328 310 302 328 330 34 39 79 324 1 314 325 300 285 323 186 190 64 259 316 289 331 354 11 89 353 356 62 50 339 338 357 242 303 313 266 288 249 196 253 287 298 298
344 344 333 309 312 312 345 57 66 92 338 357 314 326 44 6 5 1 56 87 31 91 76 124 317 174 163 173 216 251 161 161 258 223 280 307 249 250 252 244 261 250 264 284 300
354 343 338 348 331 332 70 53 197 285 287 313 321 38 342 340 47 30 19 106 71 47 119 31 260 274 321 128 132 264 200 213 219 312 278 227 270 289 258 242 293 321 327 313 308
0 341 322 337 322 14 71 232 209 261 176 24 24 26 323 312 25 24 321 348 129 80 134 199 289 248 294 33 353 163 211 313 14 266 248 258 259 250 273 288 298 302 303 305 306
14 35 360 336 327 44 108 245 290 294 192 177 236 265 251 288 274 243 252 334 134 140 103 156 175 278 28 193 212 353 276 82 131 172 216 291 257 217 249 269 267 278 291 290 303
20 35 349 353 45 22 294 267 290 308 313 229 186 212 226 242 269 253 232 192 162 167 168 202 170 266 240 278 251 172 206 151 133 266 235 238 270 271 269 255 262 264 275 282 301
42 274 1 14 91 320 307 293 262 302 305 272 255 212 204 233 279 219 239 211 196 171 175 185 249 310 329 16 356 115 206 201 205 266 250 259 263 214 259 276 262 260 268 280 310
49 360 330 36 62 101 354 282 320 315 254 17 245 49 26 270 235 276 248 257 340 253 295 165 173 192 227 248 212 283 263 259 255 246 261 241 276 275 285 277 283 285 273 270 296
25 305 182 302 330 344 238 273 292 350 335 337 317 11 221 263 276 248 249 310 262 275 283 151 205 209 243 257 268 267 272 275 260 254 245 271 265 273 276 258 280 302 310 290 291
35 16 355 294 314 330 335 83 294 346 257 264 36 289 295 233 222 273 269 207 226 274 185 162 250 197 258 247 253 269 270 264 263 261 255 258 266 273 285 297 306 296 304 301 297
1 12 97 282 323 40 231 36 308 333 287 196 272 299 266 251 252 260 239 238 241 213 195 174 172 160 273 284 294 272 247 231 231 224 221 263 275 290 294 282 276 292 298 299 304